This is the latest recevied weather packets stored in our database for station/object K5KHP. If no packets are shown the sender has not sent any weather packets the latest 10 day(s).
| Time | Temp. | Humidity | Pressure | Rain* | Wind** | Luminosity | Snow |
|---|---|---|---|---|---|---|---|
| 1777947102 | 15.56° C | 78% | 1013.8 hPa | 0 mm | - | 16 W/m² | - |
| 1777946798 | 16.11° C | 77% | 1013.8 hPa | 0 mm | - | 22 W/m² | - |
| 1777946494 | 15.56° C | 76% | 1013.8 hPa | 0 mm | - | 26 W/m² | - |
| 1777946192 | 15.56° C | 76% | 1013.7 hPa | 0 mm | - | 28 W/m² | - |
| 1777945888 | 16.11° C | 76% | 1013.7 hPa | 0 mm | - | 31 W/m² | - |
| 1777945585 | 16.11° C | 76% | 1013.9 hPa | 0 mm | - | 31 W/m² | - |
| 1777945282 | 16.11° C | 76% | 1013.8 hPa | 0 mm | - | 32 W/m² | - |
| 1777944980 | 16.11° C | 76% | 1014 hPa | 0 mm | - | 44 W/m² | - |
| 1777944676 | 16.11° C | 77% | 1014 hPa | 0 mm | - | 48 W/m² | - |
| 1777944374 | 16.11° C | 76% | 1014 hPa | 0 mm | - | 85 W/m² | - |
| 1777944066 | 16.67° C | 76% | 1014.2 hPa | 0 mm | - | 64 W/m² | - |
| 1777943761 | 16.67° C | 76% | 1014.2 hPa | 0 mm | - | 83 W/m² | - |
| 1777943458 | 16.67° C | 76% | 1014.2 hPa | 0 mm | - | 89 W/m² | - |
| 1777943153 | 16.67° C | 75% | 1014.4 hPa | 0 mm | - | 76 W/m² | - |
| 1777942850 | 16.67° C | 76% | 1014.1 hPa | 0 mm | - | 81 W/m² | - |
| 1777942546 | 16.67° C | 75% | 1014.2 hPa | 0 mm | - | 78 W/m² | - |
| 1777942244 | 16.67° C | 75% | 1014.4 hPa | 0 mm | - | 76 W/m² | - |
| 1777941941 | 16.67° C | 75% | 1014.4 hPa | 0 mm | - | 86 W/m² | - |
| 1777941637 | 16.67° C | 76% | 1014.3 hPa | 0 mm | - | 85 W/m² | - |
| 1777941335 | 16.67° C | 77% | 1014.5 hPa | 0 mm | - | 56 W/m² | - |
| 1777941032 | 16.67° C | 78% | 1014.3 hPa | 0 mm | - | 69 W/m² | - |
| 1777940732 | 17.22° C | 77% | 1014.3 hPa | 0 mm | - | 90 W/m² | - |
| 1777940432 | 16.67° C | 78% | 1014.2 hPa | 0 mm | - | 92 W/m² | - |
| 1777940128 | 16.67° C | 78% | 1014.1 hPa | 0 mm | - | 105 W/m² | - |
| 1777939825 | 16.67° C | 78% | 1014.2 hPa | 0 mm | - | 88 W/m² | - |
* Rain latest hour (hover to see other rain measurements)
** Current wind speed in m/s (hover to see current wind gust speed)